I5NOD Altopascio Lu IT current weather conditions

sailwx.info

Wind from 142

Air temperature 2.8° C
Dewpoint -6.9° C

Last reported at 2019-Dec-11 18:55 UTC.
Time now 2019-Dec-11 20:03 UTC

Location: N 43°49' E 010°41'.
View on Google Maps.

See reports from other nearby stations

  
Tides and Currents Weather Stations Pressure Air Temp Water Temp Dewpoint Dewpoint Depression Visibility Wind Speed Wind Dir Waves Ship Positions
date/time (UTC)wind fromknots sea level pressurealtimeterstation pressurevisibilityair tempwater tempwave heightnotes
2019-Dec-11 18:55 142 2.8
2019-Dec-11 18:50 142 2.8
2019-Dec-11 18:45 142 2.8
2019-Dec-11 18:40 142 2.8
2019-Dec-11 18:32 296 3.3
2019-Dec-11 18:30 296 3.3
2019-Dec-11 18:25 296 3.3
2019-Dec-11 18:20 296 2.8
2019-Dec-11 18:15 296 2.8
2019-Dec-11 18:02 296 3.3
2019-Dec-11 18:00 296 3.3
2019-Dec-11 17:55 296 3.9
2019-Dec-11 17:50 296 3.9
2019-Dec-11 17:45 296 4.4
2019-Dec-11 17:40 296 4.4
2019-Dec-11 17:35 296 4.4
2019-Dec-11 17:30 296 5.0
2019-Dec-11 17:25 296 5.0
2019-Dec-11 17:17 296 5.0
2019-Dec-11 17:15 296 5.0
2019-Dec-11 17:05 296 5.6
2019-Dec-11 17:00 296 5.6
2019-Dec-11 16:55 296 5.6
2019-Dec-11 16:50 296 6.1
2019-Dec-11 16:35 296 6.1
2019-Dec-11 16:20 296 6.1
2019-Dec-11 16:10 296 6.7
2019-Dec-11 16:05 296 6.7
2019-Dec-11 15:55 296 7.8
2019-Dec-11 15:50 296 7.8
2019-Dec-11 15:45 296 7.8
2019-Dec-11 15:40 296 7.8
2019-Dec-11 15:35 296 8.3
2019-Dec-11 15:30 296 8.3
2019-Dec-11 15:25 296 8.9
2019-Dec-11 15:20 296 8.9
2019-Dec-11 15:15 275 8.9
2019-Dec-11 15:10 275 8.9
2019-Dec-11 15:05 275 9.4
2019-Dec-11 15:00 275 9.4
2019-Dec-11 14:55 275 9.4
2019-Dec-11 14:50 275 9.4
2019-Dec-11 14:45 275 9.4
2019-Dec-11 14:35 275 9.4
2019-Dec-11 14:30 277 9.4
2019-Dec-11 14:20 271 9.4
2019-Dec-11 14:02 175 9.4
2019-Dec-11 14:00 176 9.4
2019-Dec-11 13:55 193 9.4
2019-Dec-11 13:50 243 10.0
2019-Dec-11 13:45 169 10.0
2019-Dec-11 13:40 176 10.0
2019-Dec-11 13:35 353 10.6
2019-Dec-11 13:30 353 10.6
2019-Dec-11 13:25 304 10.6
2019-Dec-11 13:20 265 10.6
2019-Dec-11 13:15 161 10.6
2019-Dec-11 13:10 159 1 gusting 2 11.1
2019-Dec-11 13:05 163 11.1
2019-Dec-11 13:00 171 11.1
2019-Dec-11 12:55 173 11.1
2019-Dec-11 12:50 165 0 gusting 6 11.1
2019-Dec-11 12:32 172 11.7
2019-Dec-11 12:25 177 11.7
2019-Dec-11 12:17 167 12.2
2019-Dec-11 12:15 105 12.2
2019-Dec-11 12:10 105 12.2
2019-Dec-11 12:05 038 12.2
2019-Dec-11 12:00 095 12.2
2019-Dec-11 11:50 323 12.8
2019-Dec-11 11:45 215 0 gusting 6 12.2
2019-Dec-11 11:35 159 12.2
2019-Dec-11 11:30 202 12.8
2019-Dec-11 11:25 174 12.2
2019-Dec-11 11:17 147 0 gusting 4 12.2
2019-Dec-11 11:15 149 12.2
2019-Dec-11 11:05 260 11.7
2019-Dec-11 11:00 169 11.1
2019-Dec-11 10:50 257 11.1
2019-Dec-11 10:45 255 10.6
2019-Dec-11 10:40 257 10.6
2019-Dec-11 10:35 262 11.1
2019-Dec-11 10:30 300 11.1
2019-Dec-11 10:25 273 2 gusting 4 10.6
2019-Dec-11 10:20 298 10.6
2019-Dec-11 10:15 291 10.6
2019-Dec-11 10:10 322 10.6
2019-Dec-11 10:05 274 10.6
2019-Dec-11 09:55 251 9.4
2019-Dec-11 09:50 214 9.4
2019-Dec-11 09:45 279 9.4
2019-Dec-11 09:40 279 9.4
2019-Dec-11 09:35 279 9.4
2019-Dec-11 09:25 259 9.4
2019-Dec-11 09:17 259 9.4
2019-Dec-11 09:15 258 9.4
2019-Dec-11 09:05 254 10.6
2019-Dec-11 09:00 168 10.0
2019-Dec-11 08:50 168 10.6
2019-Dec-11 08:45 168 9.4
2019-Dec-11 08:40 168 8.9
2019-Dec-11 08:35 168 8.3
2019-Dec-11 08:25 168 7.2
2019-Dec-11 08:17 168 6.7
2019-Dec-11 08:15 168 6.7
2019-Dec-11 08:05 168 6.7
2019-Dec-11 08:00 168 6.1
2019-Dec-11 07:47 168 2.8
2019-Dec-11 07:40 168 1.1
2019-Dec-11 07:35 168 -0.0
2019-Dec-11 07:30 168 -0.0
2019-Dec-11 07:17 168 -0.6
2019-Dec-11 07:15 168 -0.6
2019-Dec-11 07:10 170 -0.6
2019-Dec-11 07:05 306 -0.6
2019-Dec-11 07:00 307 -0.6
2019-Dec-11 06:50 306 -0.6
2019-Dec-11 06:40 344 -0.0
2019-Dec-11 06:32 344 -0.6
2019-Dec-11 06:30 344 -0.6
2019-Dec-11 06:25 344 -0.6
2019-Dec-11 06:20 344 -0.6
2019-Dec-11 06:15 344 -0.6
2019-Dec-11 06:10 344 -0.6
2019-Dec-11 06:05 344 -0.6
2019-Dec-11 05:55 307 -0.0
2019-Dec-11 05:47 307 -0.0
2019-Dec-11 05:40 307 -0.0
2019-Dec-11 05:35 307 -0.0
2019-Dec-11 05:30 273 -0.0
2019-Dec-11 05:25 291 -0.0
2019-Dec-11 05:20 305 -0.0
2019-Dec-11 05:10 127 0 gusting 2 -0.0
2019-Dec-11 05:05 118 -0.0
2019-Dec-11 05:00 -0.0
2019-Dec-11 04:50 -0.0
2019-Dec-11 04:45 -0.0
2019-Dec-11 04:40 -0.0
2019-Dec-11 04:32 0.6
2019-Dec-11 04:30 0.6
2019-Dec-11 04:25 350 0.6
2019-Dec-11 04:20 353 0.6
2019-Dec-11 04:10 353 0.6
2019-Dec-11 04:05 353 0.6
2019-Dec-11 04:00 353 0.6
2019-Dec-11 03:50 353 0.6
2019-Dec-11 03:45 353 0.6
2019-Dec-11 03:35 353 0.6
2019-Dec-11 03:30 353 0.6
2019-Dec-11 03:20 353 1.1
2019-Dec-11 03:02 353 1.1
2019-Dec-11 03:00 353 1.1
2019-Dec-11 02:55 353 1.7
2019-Dec-11 02:50 353 1.7
2019-Dec-11 02:32 353 1.7
2019-Dec-11 02:30 353 1.7
2019-Dec-11 02:25 353 1.7
2019-Dec-11 02:20 353 2.2
2019-Dec-11 02:15 353 2.2
2019-Dec-11 02:10 353 2.2
2019-Dec-11 02:05 353 2.2
2019-Dec-11 02:00 353 2.8
2019-Dec-11 01:55 353 2.8
2019-Dec-11 01:47 353 2.8
2019-Dec-11 01:45 353 2.8
2019-Dec-11 01:40 353 3.3
2019-Dec-11 01:32 353 3.3
2019-Dec-11 01:30 278 3.3
2019-Dec-11 01:20 278 3.9
2019-Dec-11 01:15 278 3.9
2019-Dec-11 01:10 278 3.9
2019-Dec-11 01:05 278 3.9
2019-Dec-11 01:00 278 4.4
2019-Dec-11 00:55 278 4.4
2019-Dec-11 00:50 278 4.4
2019-Dec-11 00:45 278 5.0
2019-Dec-11 00:35 331 5.0
2019-Dec-11 00:20 331 5.6
2019-Dec-11 00:15 112 6.1
2019-Dec-11 00:10 112 6.1
2019-Dec-11 00:02 112 6.7
2019-Dec-11 00:00 112 6.7
2019-Dec-10 23:47 080 7.2
2019-Dec-10 23:35 090 7.2
2019-Dec-10 23:30 112 7.2
2019-Dec-10 23:25 121 7.8
2019-Dec-10 23:20 090 7.8
2019-Dec-10 23:15 074 1 gusting 5 7.8
2019-Dec-10 23:10 041 1 gusting 6 7.8
2019-Dec-10 23:05 074 0 gusting 4 7.8
2019-Dec-10 23:00 062 7.8
2019-Dec-10 22:55 069 1 gusting 6 7.8
2019-Dec-10 22:47 076 7.8
2019-Dec-10 22:45 081 0 gusting 6 7.8
2019-Dec-10 22:40 073 2 gusting 6 7.8
2019-Dec-10 22:35 079 0 gusting 6 7.8
2019-Dec-10 22:30 082 0 gusting 6 7.8
2019-Dec-10 22:20 069 7.8
2019-Dec-10 22:15 080 7.8
2019-Dec-10 22:10 075 7.8
2019-Dec-10 22:05 061 1 gusting 6 7.8
2019-Dec-10 22:00 082 1 gusting 6 7.8
2019-Dec-10 21:55 094 2 gusting 6 7.8
2019-Dec-10 21:50 093 0 gusting 6 7.2
2019-Dec-10 21:45 072 0 gusting 5 7.2
2019-Dec-10 21:40 095 7.2
2019-Dec-10 21:35 059 7.2
2019-Dec-10 21:17 121 7.2
2019-Dec-10 21:15 119 7.8
2019-Dec-10 21:10 141 7.8
2019-Dec-10 21:02 086 7.8
2019-Dec-10 21:00 105 7.8
2019-Dec-10 20:55 070 7.8
2019-Dec-10 20:47 054 7.8
2019-Dec-10 20:45 053 8.3
2019-Dec-10 20:40 055 8.3
2019-Dec-10 20:35 044 8.3
2019-Dec-10 20:25 040 7.8
2019-Dec-10 20:20 054 0 gusting 6 7.8
2019-Dec-10 20:15 051 7.8
2019-Dec-10 20:10 078 8.3
2019-Dec-10 20:05 081 8.3
2019-Dec-10 20:00 071 8.3
2019-Dec-10 19:55 064 8.3
2019-Dec-10 19:50 076 2 gusting 6 7.8
2019-Dec-10 19:45 082 1 gusting 4 7.8
2019-Dec-10 19:40 078 0 gusting 5 7.8
2019-Dec-10 19:35 109 7.8
2019-Dec-10 19:30 072 7.2
2019-Dec-10 19:25 101 7.2
2019-Dec-10 19:20 117 7.2
2019-Dec-10 19:10 096 7.2
2019-Dec-10 19:05 097 7.2
2019-Dec-10 19:00 090 7.2
2019-Dec-10 18:47 073 7.8
2019-Dec-10 18:45 032 7.8
2019-Dec-10 18:40 071 7.8
2019-Dec-10 18:35 033 7.8
2019-Dec-10 18:30 039 7.8
2019-Dec-10 18:25 050 7.8
2019-Dec-10 18:17 073 7.8
2019-Dec-10 18:10 027 7.8
2019-Dec-10 18:05 047 7.8
2019-Dec-10 18:00 032 7.8
2019-Dec-10 17:47 020 8.3
2019-Dec-10 17:45 019 8.3
2019-Dec-10 17:40 073 8.3
2019-Dec-10 17:35 050 8.9
2019-Dec-10 17:30 041 8.9
2019-Dec-10 17:25 066 8.9
2019-Dec-10 17:20 077 0 gusting 6 8.9
2019-Dec-10 17:15 087 8.9
2019-Dec-10 17:10 046 9.4
2019-Dec-10 17:02 075 9.4
2019-Dec-10 16:55 075 0 gusting 4 9.4
2019-Dec-10 16:50 088 10.0
2019-Dec-10 16:45 087 4 gusting 7 9.4
2019-Dec-10 16:40 084 9.4
2019-Dec-10 16:35 071 0 gusting 6 9.4
2019-Dec-10 16:30 096 1 gusting 6 9.4
2019-Dec-10 16:17 078 10.0
2019-Dec-10 16:15 086 10.0
2019-Dec-10 16:10 096 1 gusting 6 10.0
2019-Dec-10 16:05 087 2 gusting 6 10.6
2019-Dec-10 15:55 102 4 gusting 7 10.6
2019-Dec-10 15:50 104 3 gusting 6 10.6
2019-Dec-10 15:32 099 2 gusting 7 11.1
2019-Dec-10 15:30 091 2 gusting 8 11.1
2019-Dec-10 15:20 094 2 gusting 6 11.7
2019-Dec-10 15:15 098 4 gusting 7 11.7
2019-Dec-10 15:10 095 4 gusting 8 11.7
2019-Dec-10 15:05 093 2 gusting 7 11.7
2019-Dec-10 14:55 093 3 gusting 7 12.2
2019-Dec-10 14:50 099 2 gusting 7 12.2
2019-Dec-10 14:35 103 5 gusting 8 12.2
2019-Dec-10 14:30 102 4 gusting 10 12.2
2019-Dec-10 14:20 092 4 gusting 7 12.8
2019-Dec-10 14:15 095 3 gusting 10 12.8
2019-Dec-10 14:10 105 5 gusting 10 12.8
2019-Dec-10 14:05 107 5 gusting 8 12.8
2019-Dec-10 13:55 112 4 gusting 8 12.8
2019-Dec-10 13:47 093 5 gusting 8 12.8
2019-Dec-10 13:40 111 5 gusting 8 12.8
2019-Dec-10 13:35 086 5 gusting 7 12.8
2019-Dec-10 13:20 088 5 gusting 11 13.3
2019-Dec-10 13:15 084 2 gusting 10 13.3
2019-Dec-10 13:10 080 2 gusting 8 13.3
2019-Dec-10 13:05 074 4 gusting 12 13.3
2019-Dec-10 13:00 082 5 gusting 12 13.3
2019-Dec-10 12:55 079 5 gusting 8 13.9
2019-Dec-10 12:50 097 5 gusting 13 13.9
2019-Dec-10 12:40 077 4 gusting 11 14.4
2019-Dec-10 12:35 081 5 gusting 12 14.4
2019-Dec-10 12:25 075 3 gusting 8 15.0
2019-Dec-10 12:20 092 2 gusting 10 15.0
2019-Dec-10 12:15 083 3 gusting 7 15.0
2019-Dec-10 12:10 079 2 gusting 8 15.0
2019-Dec-10 12:05 099 2 gusting 7 15.6
2019-Dec-10 12:00 148 0 gusting 4 15.6
2019-Dec-10 11:55 225 15.0
2019-Dec-10 11:47 225 15.0
2019-Dec-10 11:45 242 15.0
2019-Dec-10 11:40 263 15.0
2019-Dec-10 11:35 250 14.4
2019-Dec-10 11:17 271 13.9
2019-Dec-10 11:05 270 13.3
2019-Dec-10 11:00 302 12.8
2019-Dec-10 10:55 234 12.8
2019-Dec-10 10:47 238 12.8
2019-Dec-10 10:40 264 1 gusting 6 13.3
2019-Dec-10 10:35 274 13.3
2019-Dec-10 10:30 263 13.3
2019-Dec-10 10:25 325 12.8
2019-Dec-10 10:17 325 12.8
2019-Dec-10 10:15 325 12.8
2019-Dec-10 10:10 325 12.8
2019-Dec-10 10:02 325 12.8
2019-Dec-10 10:00 325 12.2
2019-Dec-10 09:55 325 12.2
2019-Dec-10 09:50 325 11.1
2019-Dec-10 09:45 325 11.1
2019-Dec-10 09:40 325 10.6
2019-Dec-10 09:35 325 10.6
2019-Dec-10 09:25 325 10.6
2019-Dec-10 09:20 325 10.0
2019-Dec-10 09:05 325 9.4
2019-Dec-10 08:50 343 6.7
2019-Dec-10 08:45 343 6.7
2019-Dec-10 08:40 343 6.7
2019-Dec-10 08:35 343 6.7
2019-Dec-10 08:30 343 6.7
2019-Dec-10 08:20 183 6.7
2019-Dec-10 08:15 183 6.1
2019-Dec-10 08:05 183 5.6
2019-Dec-10 08:00 183 5.0
2019-Dec-10 07:50 333 3.9
2019-Dec-10 07:40 333 2.8
2019-Dec-10 07:35 333 2.2
2019-Dec-10 07:30 333 1.1
2019-Dec-10 07:25 333 1.1
2019-Dec-10 07:17 333 1.1
2019-Dec-10 07:15 333 1.1
2019-Dec-10 07:05 335 1.1
2019-Dec-10 07:00 338 1.1
2019-Dec-10 06:55 338 1.1
2019-Dec-10 06:50 338 1.1
2019-Dec-10 06:40 338 1.1
2019-Dec-10 06:35 338 1.1
2019-Dec-10 06:25 321 1.1
2019-Dec-10 06:20 329 1.1
2019-Dec-10 06:15 134 1.1
2019-Dec-10 06:10 134 1.1
2019-Dec-10 06:05 134 1.1
2019-Dec-10 06:00 134 0 gusting 2 1.1
2019-Dec-10 05:47 158 1.1
2019-Dec-10 05:45 158 1.1
2019-Dec-10 05:40 158 1.1
2019-Dec-10 05:32 158 1.1
2019-Dec-10 05:30 158 1.1
2019-Dec-10 05:25 158 1.7
2019-Dec-10 05:20 158 1.7
2019-Dec-10 05:15 158 1.7
2019-Dec-10 05:10 158 1.7
2019-Dec-10 05:05 357 1.7
2019-Dec-10 05:00 357 1.7
2019-Dec-10 04:50 357 1.7
2019-Dec-10 04:45 357 1.7
2019-Dec-10 04:40 357 1.7
2019-Dec-10 04:32 357 1.7
2019-Dec-10 04:30 357 1.7
2019-Dec-10 04:25 357 1.7
2019-Dec-10 04:20 357 1.7
2019-Dec-10 04:15 357 1.7
2019-Dec-10 04:02 098 1.7
2019-Dec-10 03:47 098 2.2
2019-Dec-10 03:45 098 2.2
2019-Dec-10 03:40 098 2.2
2019-Dec-10 03:35 098 2.2
2019-Dec-10 03:30 098 2.2
2019-Dec-10 03:17 098 2.2
2019-Dec-10 03:15 098 2.2
2019-Dec-10 03:10 098 2.2
2019-Dec-10 03:05 098 2.8
2019-Dec-10 03:00 098 2.8
2019-Dec-10 02:50 098 2.8
2019-Dec-10 02:40 098 2.8
2019-Dec-10 02:35 098 2.8
2019-Dec-10 02:30 098 2.8
2019-Dec-10 02:25 098 2.8
2019-Dec-10 02:20 098 2.8
2019-Dec-10 02:15 098 2.8
2019-Dec-10 02:10 098 2.8
2019-Dec-10 02:02 098 2.8
2019-Dec-10 02:00 098 2.8
2019-Dec-10 01:55 098 2.8
2019-Dec-10 01:50 098 2.8
2019-Dec-10 01:45 098 2.8
2019-Dec-10 01:35 098 3.3
2019-Dec-10 01:30 098 3.3
2019-Dec-10 01:20 098 3.3
2019-Dec-10 01:15 098 3.3
2019-Dec-10 01:10 098 3.3
2019-Dec-10 01:05 098 3.3
2019-Dec-10 01:00 098 3.3
2019-Dec-10 00:55 098 3.3
2019-Dec-10 00:47 098 3.9
2019-Dec-10 00:45 098 3.9
2019-Dec-10 00:35 098 3.9
2019-Dec-10 00:30 098 3.3
2019-Dec-10 00:25 098 3.3
2019-Dec-10 00:17 098 3.9
2019-Dec-10 00:15 098 3.9
2019-Dec-10 00:10 098 3.9
2019-Dec-10 00:05 098 3.9
2019-Dec-09 23:47 098 3.9
2019-Dec-09 23:40 098 4.4
2019-Dec-09 23:35 098 4.4
2019-Dec-09 23:30 098 4.4
2019-Dec-09 23:25 098 4.4
2019-Dec-09 23:20 098 4.4
2019-Dec-09 23:15 098 4.4
2019-Dec-09 23:10 098 4.4
2019-Dec-09 23:05 098 4.4
2019-Dec-09 23:00 098 4.4
2019-Dec-09 22:55 098 5.0
2019-Dec-09 22:50 098 5.0
2019-Dec-09 22:45 098 5.0
2019-Dec-09 22:40 098 5.0
2019-Dec-09 22:35 098 5.0
2019-Dec-09 22:30 098 5.0
2019-Dec-09 22:25 098 5.0
2019-Dec-09 22:20 098 5.0
2019-Dec-09 22:10 098 5.6
2019-Dec-09 22:05 098 5.6
2019-Dec-09 21:55 098 5.6
2019-Dec-09 21:47 098 5.6
2019-Dec-09 21:35 098 6.1
2019-Dec-09 21:20 098 6.1
2019-Dec-09 21:15 028 6.1
2019-Dec-09 21:10 028 6.7
2019-Dec-09 21:05 028 6.7
2019-Dec-09 21:00 028 6.7
2019-Dec-09 20:55 028 6.7
2019-Dec-09 20:50 028 6.7
2019-Dec-09 20:45 028 6.7
2019-Dec-09 20:40 028 6.7
2019-Dec-09 20:35 028 6.7
2019-Dec-09 20:30 028 6.7
2019-Dec-09 20:25 028 6.7
2019-Dec-09 20:20 028 6.7
2019-Dec-09 20:10 028 7.2
2019-Dec-09 20:05 028 7.2
2019-Dec-09 20:00 028 7.2